Weather History for West Point, VA

Change the Weather History Date:

Monday, November 19, 2012

  Actual Average (KRIC) Record (KRIC)
Temperature  
Mean Temperature 50 °F 49 °F  
Max Temperature 51 °F 60 °F 81 °F (1934)
Min Temperature 49 °F 39 °F 18 °F (1936)
Degree Days  
Heating Degree Days 16 16  
Month to date heating degree days 247  
Since 1 July heating degree days 480  
Cooling Degree Days 0 0  
Month to date cooling degree days 0  
Year to date cooling degree days 1543  
Moisture  
Dew Point 45 °F    
Average Humidity 82    
Maximum Humidity 86    
Minimum Humidity 77    
Precipitation  
Precipitation 0.00 in 0.10 in 1.52 in (2003)
Month to date precipitation 2.04  
Year to date precipitation 39.14  
Snow  
Snow 0.00 in 0.00 in T in (2000)
Month to date snowfall 0.1  
Since 1 July snowfall 0.1  
Snow Depth -    
Sea Level Pressure  
Sea Level Pressure 30.32 in    
Wind  
Wind Speed 8 mph (North)    
Max Wind Speed 13 mph    
Max Gust Speed 18 mph    
Visibility 10 miles    
Events      
T = Trace of Precipitation, MM = Missing Value Source: NWS Daily Summary

Daily Weather History Graph

Daily Weather History Graph

Search for Another Location

Airport:

Trip Planner

Search our weather history database for the weather conditions in past years. The results will help you decide how hot, cold, wet, or windy it might be!

Date:

Astronomy

Nov. 19, 2012 Rise Set
Actual Time 6:51 AM EST 4:53 PM EST
Civil Twilight 6:23 AM EST 5:21 PM EST
Nautical Twilight 5:51 AM EST 5:53 PM EST
Astronomical Twilight 5:20 AM EST 6:24 PM EST
Moon 11:55 AM EST 11:14 PM EST
Length of Visible Light 10h 58m
Length of Day
10h 01m
Waxing Crescent, 40% of the Moon is Illuminated
Nov 19
Waxing Crescent
Nov 20
First Quarter
Nov 28
Full
Dec 6
Last Quarter
Dec 13
New

Hourly Weather History & Observations

Time (EST) Temp. Dew Point Humidity Pressure Visibility Wind Dir Wind Speed Gust Speed Precip Events Conditions
12:15 AM 50.0 °F 43.7 °F 79% 30.42 in 10.0 mi North 6.9 mph 10.4 mph N/A   Overcast
12:55 AM 50.0 °F 43.7 °F 79% 30.42 in 10.0 mi North 9.2 mph - N/A   Overcast
1:15 AM 50.0 °F 43.7 °F 79% 30.42 in 10.0 mi North 10.4 mph 17.3 mph N/A   Overcast
1:35 AM 49.6 °F 43.7 °F 80% 30.41 in 10.0 mi North 8.1 mph 17.3 mph N/A   Overcast
1:55 AM 49.6 °F 43.9 °F 81% 30.41 in 10.0 mi North 5.8 mph - N/A   Overcast
2:15 AM 49.6 °F 43.9 °F 81% 30.41 in 10.0 mi NNE 8.1 mph - N/A   Overcast
2:35 AM 49.6 °F 44.1 °F 81% 30.40 in 10.0 mi NNE 6.9 mph - N/A   Overcast
2:55 AM 49.5 °F 44.1 °F 82% 30.39 in 10.0 mi North 9.2 mph - N/A   Overcast
3:15 AM 49.5 °F 44.1 °F 82% 30.39 in 10.0 mi North 6.9 mph - N/A   Overcast
3:35 AM 49.5 °F 44.1 °F 82% 30.38 in 10.0 mi North 9.2 mph 18.4 mph N/A   Overcast
3:55 AM 49.5 °F 44.2 °F 82% 30.37 in 10.0 mi North 9.2 mph - N/A   Overcast
4:15 AM 49.5 °F 44.1 °F 82% 30.37 in 10.0 mi North 8.1 mph - N/A   Overcast
4:35 AM 49.5 °F 44.1 °F 82% 30.37 in 10.0 mi North 10.4 mph 17.3 mph N/A   Overcast
4:55 AM 49.3 °F 44.1 °F 82% 30.37 in 10.0 mi North 6.9 mph - N/A   Overcast
5:15 AM 49.1 °F 43.9 °F 82% 30.37 in 10.0 mi North 6.9 mph - N/A   Overcast
5:35 AM 49.1 °F 43.7 °F 82% 30.38 in 10.0 mi North 9.2 mph - N/A   Overcast
5:55 AM 49.1 °F 43.7 °F 82% 30.38 in 10.0 mi North 10.4 mph 16.1 mph N/A   Overcast
6:15 AM 49.1 °F 43.9 °F 82% 30.37 in 10.0 mi North 6.9 mph 18.4 mph N/A   Overcast
6:35 AM 49.1 °F 44.1 °F 83% 30.38 in 10.0 mi North 10.4 mph 17.3 mph N/A   Overcast
6:55 AM 49.1 °F 44.1 °F 83% 30.38 in 10.0 mi North 11.5 mph 17.3 mph N/A   Overcast
7:15 AM 49.3 °F 44.6 °F 84% 30.38 in 10.0 mi NNE 12.7 mph 18.4 mph N/A   Overcast
7:35 AM 49.3 °F 44.6 °F 84% 30.39 in 10.0 mi North 9.2 mph 17.3 mph N/A   Overcast
7:55 AM 49.3 °F 44.6 °F 84% 30.38 in 10.0 mi North 9.2 mph - N/A   Overcast
8:35 AM 49.3 °F 44.8 °F 84% 30.39 in 10.0 mi North 9.2 mph - N/A   Overcast
8:55 AM 49.5 °F 45.0 °F 84% 30.38 in 10.0 mi North 9.2 mph - N/A   Overcast
9:15 AM 50.0 °F 45.0 °F 83% 30.38 in 10.0 mi North 8.1 mph 16.1 mph N/A   Overcast
9:35 AM 50.0 °F 45.1 °F 83% 30.37 in 10.0 mi NNE 9.2 mph - N/A   Overcast
9:55 AM 50.0 °F 45.0 °F 83% 30.37 in 10.0 mi North 8.1 mph - N/A   Overcast
10:15 AM 50.2 °F 45.5 °F 84% 30.36 in 10.0 mi NNE 9.2 mph 16.1 mph N/A   Overcast
10:35 AM 50.2 °F 45.5 °F 84% 30.36 in 10.0 mi North 8.1 mph - N/A   Overcast
10:55 AM 50.4 °F 45.7 °F 84% 30.35 in 10.0 mi North 9.2 mph - N/A   Overcast
11:15 AM 50.4 °F 45.7 °F 84% 30.34 in 10.0 mi North 12.7 mph 16.1 mph N/A   Overcast
11:35 AM 50.4 °F 45.7 °F 84% 30.33 in 10.0 mi North 10.4 mph - N/A   Overcast
11:55 AM 50.4 °F 45.9 °F 85% 30.32 in 10.0 mi North 11.5 mph 17.3 mph N/A   Overcast
12:15 PM 50.7 °F 46.0 °F 84% 30.32 in 10.0 mi North 9.2 mph - N/A   Overcast
12:35 PM 50.4 °F 46.2 °F 86% 30.32 in 10.0 mi North 8.1 mph - N/A   Overcast
12:55 PM 50.0 °F 46.0 °F 86% 30.32 in 10.0 mi North 11.5 mph 17.3 mph N/A   Overcast
1:15 PM 50.0 °F 45.9 °F 86% 30.31 in 10.0 mi North 11.5 mph - N/A   Overcast
1:35 PM 50.0 °F 46.0 °F 86% 30.30 in 10.0 mi North 5.8 mph - N/A   Overcast
2:15 PM 50.0 °F 45.9 °F 86% 30.29 in 10.0 mi North 9.2 mph - N/A   Overcast
2:35 PM 50.0 °F 45.7 °F 85% 30.29 in 10.0 mi North 5.8 mph - N/A   Overcast
2:55 PM 50.0 °F 45.7 °F 85% 30.29 in 10.0 mi North 10.4 mph - N/A   Overcast
3:15 PM 50.0 °F 45.5 °F 85% 30.29 in 10.0 mi North 6.9 mph - N/A   Overcast
3:35 PM 50.5 °F 46.0 °F 85% 30.28 in 10.0 mi North 4.6 mph - N/A   Overcast
3:55 PM 50.5 °F 45.9 °F 84% 30.28 in 10.0 mi North 5.8 mph - N/A   Overcast
4:15 PM 50.9 °F 46.0 °F 83% 30.28 in 10.0 mi North 8.1 mph - N/A   Overcast
4:35 PM 50.5 °F 46.0 °F 85% 30.28 in 10.0 mi North 6.9 mph - N/A   Overcast
4:55 PM 50.5 °F 46.0 °F 85% 30.27 in 10.0 mi North 3.5 mph - N/A   Overcast
5:15 PM 50.4 °F 45.7 °F 84% 30.27 in 10.0 mi North 5.8 mph - N/A   Overcast
5:35 PM 50.5 °F 45.5 °F 83% 30.28 in 10.0 mi North 4.6 mph - N/A   Overcast
5:55 PM 50.5 °F 45.5 °F 83% 30.27 in 10.0 mi North 4.6 mph - N/A   Overcast
6:15 PM 50.9 °F 45.5 °F 82% 30.28 in 10.0 mi North 5.8 mph - N/A   Overcast
6:35 PM 50.9 °F 45.5 °F 82% 30.27 in 10.0 mi North 6.9 mph - N/A   Overcast
6:55 PM 50.9 °F 45.1 °F 81% 30.26 in 10.0 mi North 5.8 mph - N/A   Overcast
7:15 PM 50.9 °F 45.0 °F 80% 30.26 in 10.0 mi North 5.8 mph - N/A   Overcast
7:35 PM 50.9 °F 44.6 °F 79% 30.26 in 10.0 mi North 6.9 mph - N/A   Overcast
7:55 PM 50.9 °F 44.4 °F 78% 30.25 in 10.0 mi North 4.6 mph - N/A   Overcast
8:15 PM 50.9 °F 44.2 °F 78% 30.25 in 10.0 mi North 5.8 mph - N/A   Overcast
8:35 PM 50.9 °F 44.1 °F 77% 30.25 in 10.0 mi North 4.6 mph - N/A   Overcast
8:55 PM 50.9 °F 44.1 °F 77% 30.25 in 10.0 mi North 5.8 mph - N/A   Overcast
9:15 PM 50.9 °F 43.9 °F 77% 30.24 in 10.0 mi NNE 5.8 mph - N/A   Overcast
9:35 PM 50.9 °F 43.9 °F 77% 30.24 in 10.0 mi North 3.5 mph - N/A   Overcast
10:15 PM 50.9 °F 44.1 °F 77% 30.23 in 10.0 mi North 3.5 mph - N/A   Overcast
10:35 PM 50.9 °F 44.1 °F 77% 30.21 in 10.0 mi North 4.6 mph - N/A   Overcast
10:55 PM 50.9 °F 44.1 °F 77% 30.21 in 10.0 mi North 4.6 mph - N/A   Overcast
11:15 PM 50.5 °F 44.1 °F 78% 30.21 in 10.0 mi North 3.5 mph - N/A   Overcast
11:35 PM 50.5 °F 44.2 °F 79% 30.21 in 10.0 mi North 3.5 mph - N/A   Overcast
11:55 PM 50.4 °F 44.2 °F 80% 30.21 in 10.0 mi North 3.5 mph - N/A   Overcast